Terminal Aerodrome Forecast
Issued by NWS Charleston, WV

Current Version | Previous Version | Graphics & Text | Print | Product List | Glossary On
Versions: 1 2 3 4 5 6 7 8 9 10 11 12 13 14 15 16 17 18 19 20 21 22
000
FTUS41 KRLX 181500 AAA
TAFBKW
TAF AMD
KBKW 181506Z 1815/1912 VRB03KT P6SM SKC
     FM190400 10006KT P6SM BKN035
     FM190700 12010G16KT P6SM BKN025
     FM191000 12012G21KT P6SM BKN015=

USA.gov is the U.S. government's official web portal to all federal, state and local government web resources and services.